Seward, AK

12:12 PM AKST on December 03, 2016 (GMT -0900)
Seward

Weather History for PAWD - October, 2010

Change the Weather History Date:

Monday, October 11, 2010

  Actual Average Record
Temperature  
Mean Temperature 40 °F -  
Max Temperature 43 °F 46 °F 54 °F (2012)
Min Temperature 36 °F 35 °F 23 °F (1961)
Degree Days  
Heating Degree Days 26    
Moisture  
Dew Point 36 °F    
Average Humidity 89    
Maximum Humidity 93    
Minimum Humidity 79    
Precipitation  
Precipitation 0.03 in - - ()
Sea Level Pressure  
Sea Level Pressure 29.63 in    
Wind  
Wind Speed 1 mph (NNW)    
Max Wind Speed 7 mph    
Max Gust Speed -    
Visibility 10 miles    
Events Rain    
Averages and records for this station are not official NWS values.
T = Trace of Precipitation, MM = Missing Value Source: NWS Daily Summary

Daily Weather History Graph

Daily Weather History Graph

Search for Another Location

Airport or City:

Trip Planner

Search our weather history database for the weather conditions in past years. The results will help you decide how hot, cold, wet, or windy it might be!

Date:

Astronomy

Oct. 11, 2010 Rise Set
Actual Time 8:27 AM AKDT 6:59 PM AKDT
Civil Twilight 7:45 AM AKDT 7:41 PM AKDT
Nautical Twilight 6:57 AM AKDT 8:29 PM AKDT
Astronomical Twilight 6:08 AM AKDT 9:18 PM AKDT
Moon 2:55 PM AKDT (10/11) 8:05 PM AKDT (10/11)
Length of Visible Light 11h 55m
Length of Day
10h 31m
Waxing Crescent, 21% of the Moon is Illuminated
Oct 11
Waxing Crescent
Oct 14
First Quarter
Oct 22
Full
Oct 30
Last Quarter
Nov 5
New

Hourly Weather History & Observations

Time (AKDT) Temp. Windchill Dew Point Humidity Pressure Visibility Wind Dir Wind Speed Gust Speed Precip Events Conditions
12:53 AM 37.0 °F - 35.1 °F 93% 29.55 in 10.0 mi Calm Calm - N/A   Mostly Cloudy
1:53 AM 37.0 °F - 35.1 °F 93% 29.56 in 10.0 mi Calm Calm - N/A   Mostly Cloudy
2:53 AM 36.0 °F - 34.0 °F 93% 29.57 in 10.0 mi Calm Calm - N/A   Overcast
3:53 AM 36.0 °F 33.3 °F 34.0 °F 93% 29.57 in 10.0 mi North 3.5 mph - N/A   Overcast
4:53 AM 36.0 °F - 34.0 °F 93% 29.58 in 10.0 mi Calm Calm - N/A   Overcast
5:53 AM 36.0 °F - 34.0 °F 93% 29.58 in 10.0 mi Calm Calm - N/A   Overcast
6:53 AM 36.0 °F - 34.0 °F 93% 29.59 in 10.0 mi Calm Calm - N/A   Overcast
7:53 AM 36.0 °F 33.3 °F 34.0 °F 93% 29.60 in 10.0 mi North 3.5 mph - N/A   Overcast
8:53 AM 36.0 °F 33.3 °F 34.0 °F 93% 29.60 in 10.0 mi North 3.5 mph - N/A   Overcast
9:53 AM 37.0 °F 34.5 °F 35.1 °F 93% 29.61 in 10.0 mi North 3.5 mph - N/A   Overcast
10:53 AM 39.0 °F - 36.0 °F 89% 29.63 in 10.0 mi Calm Calm - N/A   Overcast
11:25 AM 39.2 °F - 37.4 °F 93% 29.63 in 10.0 mi Calm Calm - 0.00 in Rain Light Rain
11:42 AM 41.0 °F - 37.4 °F 87% 29.64 in 10.0 mi Calm Calm - 0.01 in Rain Light Rain
11:53 AM 39.9 °F - 37.0 °F 89% 29.64 in 10.0 mi Calm Calm - 0.01 in Rain Light Rain
12:25 PM 39.2 °F - 37.4 °F 93% 29.64 in 10.0 mi Calm Calm - 0.01 in Rain Light Rain
12:53 PM 41.0 °F 39.0 °F 37.0 °F 86% 29.65 in 10.0 mi South 3.5 mph - 0.02 in   Overcast
1:07 PM 41.0 °F - 35.6 °F 81% 29.65 in 10.0 mi Calm Calm - N/A   Overcast
1:53 PM 42.1 °F - 36.0 °F 79% 29.66 in 10.0 mi Calm Calm - 0.00 in Rain Light Rain
2:53 PM 42.1 °F - 36.0 °F 79% 29.66 in 10.0 mi Calm Calm - 0.00 in   Overcast
3:53 PM 43.0 °F - 37.0 °F 80% 29.67 in 10.0 mi Calm Calm - N/A   Overcast
4:53 PM 42.1 °F 40.2 °F 37.0 °F 82% 29.67 in 10.0 mi SSW 3.5 mph - 0.00 in   Mostly Cloudy
5:53 PM 42.1 °F - 37.0 °F 82% 29.66 in 10.0 mi Calm Calm - N/A   Overcast
6:53 PM 41.0 °F - 37.9 °F 89% 29.67 in 10.0 mi Calm Calm - 0.00 in   Overcast
7:53 PM 39.0 °F - 37.0 °F 93% 29.68 in 10.0 mi Calm Calm - N/A   Overcast
8:53 PM 36.0 °F - 34.0 °F 93% 29.68 in 10.0 mi Calm Calm - N/A   Scattered Clouds
9:53 PM 37.0 °F 32.4 °F 34.0 °F 89% 29.68 in 10.0 mi North 5.8 mph - N/A   Mostly Cloudy
10:53 PM 37.0 °F 31.6 °F 34.0 °F 89% 29.69 in 10.0 mi North 6.9 mph - N/A   Scattered Clouds
11:53 PM 37.0 °F 31.6 °F 33.1 °F 86% 29.69 in 10.0 mi North 6.9 mph - N/A   Clear